Regional Weather Roundup
Issued by NWS Cleveland, OH

Home | Current Version | Previous Version | Graphics & Text | Print | Product List | Glossary On
Versions: 1 2 3 4 5 6 7 8 9 10 11 12 13 14 15 16 17 18 19 20 21 22 23 24 25 26 27 28 29 30 31 32 33 34 35 36 37 38 39 40 41 42 43 44 45 46 47 48 49 50
000
ASUS41 KCLE 130000
RWRCLE
OHIO REGIONAL WEATHER ROUNDUP
NATIONAL WEATHER SERVICE WILMINGTON, OH
700 PM EST TUE DEC 12 2017

NOTE: "FAIR" INDICATES FEW OR NO CLOUDS BELOW 12,000 FEET WITH NO
SIGNIFICANT WEATHER AND/OR OBSTRUCTIONS TO VISIBILITY.

OHZ001>008-015>018-024>027-034-035-043-044-130100-
   NORTHWEST OHIO

CITY           SKY/WX    TMP DP  RH WIND       PRES   REMARKS
DEFIANCE       CLOUDY    20   8  60 NW13      29.95R WCI   7
FINDLAY        FLURRIES  20   8  60 NW14G23   29.92R WCI   7
TOLEDO EXPRESS FAIR      18   6  59 NW8       29.92R WCI   8
TOLEDO EXEC    FAIR      18   5  57 NW12      29.93R WCI   5
LIMA           FLURRIES  20  12  71 NW14      29.93R WCI   7
$$

OHZ009>014-019>023-028>033-038-089-130100-
   NORTHEAST OHIO

CITY           SKY/WX    TMP DP  RH WIND       PRES   REMARKS
CLE-HOPKINS    CLOUDY    20   5  52 NW20G32   29.87S WCI   4
CLE-LAKEFRONT  FLURRIES  21   6  52 NW26G39   29.84S WCI   4
CUY CO. ARPT   MOCLDY    19   3  49 NW17G29   29.83R WCI   4
LORAIN-ELYRIA  FLURRIES  18   7  62 NW15      29.87R WCI   4
ASHTABULA      CLOUDY    17   3  54 NW14G29   29.79S WCI   3
AKRON-CANTON   LGT SNOW  17  11  77 W13       29.82S WCI   4
WOOSTER        NOT AVBL
MANSFIELD      FLURRIES  15   3  59 W6        29.86R WCI   6
YOUNGSTOWN     FLURRIES  15   5  64 NW14G22   29.78R WCI   0
$$

OHZ042-051>053-060>062-070>072-077>081-130100-
  SOUTHWEST OHIO

CITY           SKY/WX    TMP DP  RH WIND       PRES   REMARKS
CINC-COVINGTON MOCLDY    24   9  52 W14       29.99R WCI  12
CINC-LUNKEN    MOCLDY    26   8  46 W15G22    30.02R WCI  14
HAMILTON       MOCLDY    25   9  50 NW21      30.01R WCI  11
DAYTON         NOT AVBL
WRIGHT-PAT AFB MOCLDY    21   9  59 W13       29.96R WCI   9
DAYTON GENERAL MOCLDY    22  10  60 NW13      29.97R WCI  10
WILMINGTON     CLOUDY    22  12  65 NW15      29.95R WCI   9
$$

OHZ036-037-039>041-045>050-054>059-063>069-073>076-082>088-130100-
  CENTRAL AND SOUTHEAST OHIO

CITY           SKY/WX    TMP DP  RH WIND       PRES   REMARKS
COLUMBUS       MOCLDY    22  15  75 NW9       29.92R WCI  12
OSU AIRPORT    CLOUDY    21  14  74 NW15      29.92R WCI   8
BOLTON FIELD   LGT SNOW  19  16  86 NW10G20   29.94R WCI   8
RICKENBACK AFB NOT AVBL
NEWARK         CLOUDY    22   9  57 NW12      29.90R WCI  10
MARION         CLOUDY    20   4  50 NW13      29.91  WCI   7
LANCASTER      CLOUDY    21  14  74 NW9       29.92R WCI  11
ZANESVILLE     CLOUDY    22   6  50 NW15      29.89R WCI   9
NEW PHILLY     MOCLDY    18   6  59 NW9       29.88R WCI   7
$$



USA.gov is the U.S. government's official web portal to all federal, state and local government web resources and services.